Hourly Data Report for July 01, 2021

TORONTO CITY CENTRE
ONTARIO
Current Station Operator: NAVCAN

43°37'39.000" N
79°23'46.000" W
76.80 m
6158359
71265
YTZ

Download Data

Hourly Data (July 2021)
Hourly Data Report for July 1, 2021
TIME
LST
Temp Definition
°C
Dew Point Definition
°C
Rel Hum Definition
%
Precip. Amount Definition
mm

Wind Dir Definition
10's deg

Wind Spd Definition
km/h
Visibility Definition
km
Stn Press Definition
kPa
Hmdx Definition


Wind Chill Definition


Weather Definition


00:00 21.9 17.3 75 0.0 29 8 16.1 100.42 27   LegendNANA
01:00 18.6 16.6 88 0.0 28 5 16.1 100.38     LegendNANA
02:00 18.7 16.7 88 0.0 29 5 16.1 100.33     LegendNANA
03:00 20.3 17.2 82 0.0 31 8 16.1 100.32 26   LegendNANA
04:00 16.0 15.4 96 0.0 19 4 16.1 100.29     LegendNANA
05:00 18.4 16.6 89 0.0 31 9 16.1 100.32     LegendNANA
06:00 20.2 16.8 80 0.0 33 5 16.1 100.32 25   LegendNANA
07:00 20.5 17.0 80 0.0 30 8 16.1 100.30 26   LegendNANA
08:00 21.4 17.2 77 0.0 LegendMM 4 16.1 100.30 27   LegendNANA
09:00 21.6 17.5 77 0.0 16 13 16.1 100.30 27   LegendNANA
10:00 21.5 17.4 77 0.0 LegendMM 4 16.1 100.28 27   LegendNANA
11:00 22.0 18.0 78 0.0 18 8 16.1 100.28 28   LegendNANA
12:00 22.4 17.7 74 0.0 17 11 16.1 100.25 28   LegendNANA
13:00 21.4 17.4 78 0.0 17 17 16.1 100.19 27   LegendNANA
14:00 20.1 17.5 85 0.0 23 9 16.1 100.18 26   LegendNANA
15:00 19.8 17.8 88 0.0 24 13 16.1 100.14     LegendNANA
16:00 20.0 16.7 81 0.0 24 8 16.1 100.10 25   LegendNANA
17:00 19.6 16.7 83 0.0 26 9 16.1 100.10     LegendNANA
18:00 23.4 15.6 61 0.0 34 15 16.1 100.10 28   LegendNANA
19:00 23.1 15.1 60 0.0 34 15 16.1 100.17 27   LegendNANA
20:00 20.5 14.2 67 0.0 31 28 16.1 100.19     LegendNANA
21:00 19.7 13.9 69 0.0 35 17 16.1 100.24     LegendNANA
22:00 19.0 14.3 74 0.0 33 13 16.1 100.23     LegendNANA
23:00 18.7 14.2 75 0.0 36 15 16.1 100.18     LegendNANA

Notes on Data Quality.

Legend

  • E = Estimated
  • M = Missing
  • NA = Not Available*
  • [empty] = Indicates an unobserved value
Date modified: